Time,TemperatureF,DewpointF,PressureIn,WindDirection,WindDirectionDegrees,WindSpeedMPH,WindSpeedGustMPH,Humidity,HourlyPrecipIn,Conditions,Clouds,dailyrainin,SoftwareType,DateUTC
2013-06-12 00:01:00,72.2,64.2,29.86,West,264,0.0,1.0,76,0.00,,---,0.01,VWS V14.01,2013-06-12 04:01:00,
2013-06-12 00:02:00,72.3,64.3,29.86,West,264,0.0,0.0,76,0.00,,---,0.00,VWS V14.01,2013-06-12 04:02:00,
2013-06-12 00:07:00,72.2,64.2,29.86,West,263,0.0,0.0,76,0.00,,---,0.00,VWS V14.01,2013-06-12 04:07:00,
2013-06-12 00:12:00,72.4,64.4,29.86,West,262,0.0,1.0,76,0.00,,---,0.00,VWS V14.01,2013-06-12 04:12:00,
2013-06-12 00:17:00,72.5,64.1,29.86,West,262,0.0,1.0,75,0.00,,---,0.00,VWS V14.01,2013-06-12 04:17:00,
2013-06-12 00:22:00,72.5,64.1,29.87,West,261,0.0,1.0,75,0.00,,---,0.00,VWS V14.01,2013-06-12 04:22:00,
2013-06-12 00:27:00,72.5,64.5,29.87,West,261,0.0,1.0,76,0.00,,---,0.00,VWS V14.01,2013-06-12 04:27:00,
2013-06-12 00:32:00,72.4,64.0,29.86,West,262,0.0,0.0,75,0.00,,---,0.00,VWS V14.01,2013-06-12 04:32:00,
2013-06-12 00:37:00,72.4,64.4,29.87,West,261,0.0,0.0,76,0.00,,---,0.00,VWS V14.01,2013-06-12 04:37:00,
2013-06-12 00:42:00,72.3,63.9,29.86,West,262,0.0,0.0,75,0.00,,---,0.00,VWS V14.01,2013-06-12 04:42:00,
2013-06-12 00:47:00,72.2,64.2,29.86,West,262,0.0,0.0,76,0.00,,---,0.00,VWS V14.01,2013-06-12 04:47:00,
2013-06-12 00:52:00,72.1,64.5,29.86,WSW,248,0.0,1.0,77,0.00,,---,0.00,VWS V14.01,2013-06-12 04:52:00,
2013-06-12 00:57:00,71.9,64.3,29.86,WSW,248,0.0,1.0,77,0.00,,---,0.00,VWS V14.01,2013-06-12 04:57:00,
2013-06-12 01:03:00,71.7,64.1,29.86,WSW,248,0.0,0.0,77,0.00,,---,0.00,VWS V14.01,2013-06-12 05:03:00,
2013-06-12 01:08:00,71.5,64.7,29.86,WSW,247,0.0,0.0,79,0.00,,---,0.00,VWS V14.01,2013-06-12 05:08:00,
2013-06-12 01:13:00,71.3,64.5,29.87,WSW,248,0.0,0.0,79,0.00,,---,0.00,VWS V14.01,2013-06-12 05:13:00,
2013-06-12 01:18:00,71.1,64.6,29.87,WSW,248,0.0,0.0,80,0.00,,---,0.00,VWS V14.01,2013-06-12 05:18:00,
2013-06-12 01:23:00,70.7,63.9,29.86,WSW,248,0.0,0.0,79,0.00,,---,0.00,VWS V14.01,2013-06-12 05:23:00,
2013-06-12 01:28:00,70.4,63.9,29.86,WSW,248,0.0,0.0,80,0.00,,---,0.00,VWS V14.01,2013-06-12 05:28:00,
2013-06-12 01:33:00,70.2,63.8,29.86,WSW,248,0.0,0.0,80,0.00,,---,0.00,VWS V14.01,2013-06-12 05:33:00,
2013-06-12 01:38:00,69.9,63.8,29.86,WSW,247,0.0,0.0,81,0.00,,---,0.00,VWS V14.01,2013-06-12 05:38:00,
2013-06-12 01:43:00,69.7,63.6,29.86,WSW,247,0.0,0.0,81,0.00,,---,0.00,VWS V14.01,2013-06-12 05:43:00,
2013-06-12 01:48:00,69.5,63.4,29.86,WSW,248,0.0,0.0,81,0.00,,---,0.00,VWS V14.01,2013-06-12 05:48:00,
2013-06-12 01:53:00,69.2,63.5,29.86,WSW,248,0.0,0.0,82,0.00,,---,0.00,VWS V14.01,2013-06-12 05:53:00,
2013-06-12 01:58:00,68.9,63.5,29.85,WSW,248,0.0,0.0,83,0.00,,---,0.00,VWS V14.01,2013-06-12 05:58:00,
2013-06-12 02:03:00,68.7,63.7,29.86,WSW,248,0.0,0.0,84,0.00,,---,0.00,VWS V14.01,2013-06-12 06:03:00,
2013-06-12 02:08:00,68.4,63.4,29.86,WSW,248,0.0,0.0,84,0.00,,---,0.00,VWS V14.01,2013-06-12 06:08:00,
2013-06-12 02:13:00,68.2,63.5,29.86,WSW,247,0.0,0.0,85,0.00,,---,0.00,VWS V14.01,2013-06-12 06:13:00,
2013-06-12 02:18:00,68.1,63.4,29.86,WSW,248,0.0,0.0,85,0.00,,---,0.00,VWS V14.01,2013-06-12 06:18:00,
2013-06-12 02:23:00,68.0,63.3,29.86,WSW,248,0.0,0.0,85,0.00,,---,0.00,VWS V14.01,2013-06-12 06:23:00,
2013-06-12 02:28:00,67.9,63.6,29.86,WSW,247,0.0,0.0,86,0.00,,---,0.00,VWS V14.01,2013-06-12 06:28:00,
2013-06-12 02:33:00,67.8,63.8,29.86,WSW,247,0.0,0.0,87,0.00,,---,0.00,VWS V14.01,2013-06-12 06:33:00,
2013-06-12 02:38:00,67.6,63.6,29.86,WSW,248,0.0,0.0,87,0.00,,---,0.00,VWS V14.01,2013-06-12 06:38:00,
2013-06-12 02:43:00,67.4,63.4,29.86,WSW,248,0.0,0.0,87,0.00,,---,0.00,VWS V14.01,2013-06-12 06:43:00,
2013-06-12 02:48:00,67.2,63.2,29.86,WSW,247,0.0,0.0,87,0.00,,---,0.00,VWS V14.01,2013-06-12 06:48:00,
2013-06-12 02:53:00,67.2,63.2,29.86,WSW,248,0.0,0.0,87,0.00,,---,0.00,VWS V14.01,2013-06-12 06:53:00,
2013-06-12 02:59:00,67.1,63.4,29.86,WSW,248,0.0,0.0,88,0.00,,---,0.00,VWS V14.01,2013-06-12 06:59:00,
2013-06-12 03:04:00,67.1,63.4,29.86,WSW,248,0.0,0.0,88,0.00,,---,0.00,VWS V14.01,2013-06-12 07:04:00,
2013-06-12 03:09:00,67.2,63.5,29.87,WSW,248,0.0,0.0,88,0.00,,---,0.00,VWS V14.01,2013-06-12 07:09:00,
2013-06-12 03:14:00,67.3,63.6,29.87,WSW,248,0.0,0.0,88,0.00,,---,0.00,VWS V14.01,2013-06-12 07:14:00,
2013-06-12 03:19:00,67.4,63.7,29.87,WSW,248,0.0,0.0,88,0.00,,---,0.00,VWS V14.01,2013-06-12 07:19:00,
2013-06-12 03:24:00,67.5,63.8,29.86,WSW,248,0.0,0.0,88,0.00,,---,0.00,VWS V14.01,2013-06-12 07:24:00,
2013-06-12 03:29:00,67.6,64.2,29.86,WSW,248,0.0,0.0,89,0.00,,---,0.00,VWS V14.01,2013-06-12 07:29:00,
2013-06-12 03:34:00,67.7,64.3,29.87,WSW,248,0.0,0.0,89,0.00,,---,0.00,VWS V14.01,2013-06-12 07:34:00,
2013-06-12 03:39:00,67.7,64.3,29.87,WSW,248,0.0,0.0,89,0.00,,---,0.00,VWS V14.01,2013-06-12 07:39:00,
2013-06-12 03:44:00,67.6,63.9,29.87,WSW,248,0.0,0.0,88,0.00,,---,0.00,VWS V14.01,2013-06-12 07:44:00,
2013-06-12 03:49:00,67.6,63.6,29.87,WSW,248,0.0,0.0,87,0.00,,---,0.00,VWS V14.01,2013-06-12 07:49:00,
2013-06-12 03:54:00,67.6,63.6,29.87,WSW,247,0.0,0.0,87,0.00,,---,0.00,VWS V14.01,2013-06-12 07:54:00,
2013-06-12 03:59:00,67.7,63.4,29.87,West,275,0.0,0.0,86,0.00,,---,0.00,VWS V14.01,2013-06-12 07:59:00,
2013-06-12 04:04:00,67.6,63.3,29.87,West,276,0.0,0.0,86,0.00,,---,0.00,VWS V14.01,2013-06-12 08:04:00,
2013-06-12 04:09:00,67.6,62.9,29.87,West,276,0.0,0.0,85,0.00,,---,0.00,VWS V14.01,2013-06-12 08:09:00,
2013-06-12 04:14:00,67.5,62.8,29.86,West,276,0.0,0.0,85,0.00,,---,0.00,VWS V14.01,2013-06-12 08:14:00,
2013-06-12 04:19:00,67.5,63.2,29.87,West,274,0.0,0.0,86,0.00,,---,0.00,VWS V14.01,2013-06-12 08:19:00,
2013-06-12 04:24:00,67.5,63.2,29.87,WSW,240,0.0,1.0,86,0.00,,---,0.00,VWS V14.01,2013-06-12 08:24:00,
2013-06-12 04:29:00,67.4,63.1,29.87,WSW,240,0.0,1.0,86,0.00,,---,0.00,VWS V14.01,2013-06-12 08:29:00,
2013-06-12 04:35:00,67.5,63.2,29.87,WSW,240,0.0,0.0,86,0.00,,---,0.00,VWS V14.01,2013-06-12 08:35:00,
2013-06-12 04:40:00,67.6,62.9,29.86,West,259,0.0,1.0,85,0.00,,---,0.00,VWS V14.01,2013-06-12 08:40:00,
2013-06-12 04:45:00,67.9,62.5,29.87,WSW,241,0.0,2.0,83,0.00,,---,0.00,VWS V14.01,2013-06-12 08:45:00,
2013-06-12 04:50:00,68.1,62.8,29.87,WSW,242,0.0,2.0,83,0.00,,---,0.00,VWS V14.01,2013-06-12 08:50:00,
2013-06-12 04:55:00,68.3,62.9,29.87,West,266,0.0,2.0,83,0.00,,---,0.00,VWS V14.01,2013-06-12 08:55:00,
2013-06-12 05:00:00,68.4,62.7,29.87,WSW,255,0.0,2.0,82,0.00,,---,0.00,VWS V14.01,2013-06-12 09:00:00,
2013-06-12 05:05:00,68.5,62.5,29.87,WSW,256,0.0,1.0,81,0.00,,---,0.00,VWS V14.01,2013-06-12 09:05:00,
2013-06-12 05:10:00,68.4,62.7,29.87,WSW,256,0.0,1.0,82,0.00,,---,0.00,VWS V14.01,2013-06-12 09:10:00,
2013-06-12 05:15:00,68.4,62.7,29.87,SW,226,0.0,1.0,82,0.00,,---,0.00,VWS V14.01,2013-06-12 09:15:00,
2013-06-12 05:21:00,68.3,62.9,29.88,SW,226,0.0,1.0,83,0.00,,---,0.00,VWS V14.01,2013-06-12 09:21:00,
2013-06-12 05:26:00,68.3,63.3,29.88,NW,319,0.0,2.0,84,0.00,,---,0.00,VWS V14.01,2013-06-12 09:26:00,
2013-06-12 05:31:00,68.4,63.0,29.87,SW,219,0.0,2.0,83,0.00,,---,0.00,VWS V14.01,2013-06-12 09:31:00,
2013-06-12 05:36:00,68.3,62.9,29.87,SW,219,0.0,1.0,83,0.00,,---,0.00,VWS V14.01,2013-06-12 09:36:00,
2013-06-12 05:41:00,68.3,62.9,29.87,WSW,250,0.0,1.0,83,0.00,,---,0.00,VWS V14.01,2013-06-12 09:41:00,
2013-06-12 05:46:00,68.2,62.8,29.87,WSW,250,0.0,1.0,83,0.00,,---,0.00,VWS V14.01,2013-06-12 09:46:00,
2013-06-12 05:51:00,68.1,62.8,29.87,WSW,250,0.0,1.0,83,0.00,,---,0.00,VWS V14.01,2013-06-12 09:51:00,
2013-06-12 05:56:00,68.0,62.7,29.87,WSW,250,0.0,1.0,83,0.00,,---,0.00,VWS V14.01,2013-06-12 09:56:00,
2013-06-12 06:01:00,67.9,62.9,29.87,WSW,250,0.0,1.0,84,0.00,,---,0.00,VWS V14.01,2013-06-12 10:01:00,
2013-06-12 06:06:00,67.8,62.8,29.87,WSW,250,0.0,1.0,84,0.00,,---,0.00,VWS V14.01,2013-06-12 10:06:00,
2013-06-12 06:11:00,67.6,62.6,29.87,WSW,250,0.0,1.0,84,0.00,,---,0.00,VWS V14.01,2013-06-12 10:11:00,
2013-06-12 06:16:00,67.5,62.5,29.87,WSW,250,0.0,2.0,84,0.00,,---,0.00,VWS V14.01,2013-06-12 10:16:00,
2013-06-12 06:22:00,67.3,62.6,29.87,WSW,250,0.0,2.0,85,0.00,,---,0.00,VWS V14.01,2013-06-12 10:22:00,
2013-06-12 06:27:00,67.4,63.1,29.87,WSW,250,0.0,2.0,86,0.00,,---,0.00,VWS V14.01,2013-06-12 10:27:00,
2013-06-12 06:32:00,67.5,63.2,29.87,WSW,250,0.0,0.0,86,0.00,,---,0.00,VWS V14.01,2013-06-12 10:32:00,
2013-06-12 06:37:00,67.5,63.2,29.87,WSW,250,0.0,0.0,86,0.00,,---,0.00,VWS V14.01,2013-06-12 10:37:00,
2013-06-12 06:42:00,67.7,63.4,29.87,WSW,250,0.0,0.0,86,0.00,,---,0.00,VWS V14.01,2013-06-12 10:42:00,
2013-06-12 06:47:00,67.8,63.5,29.87,WSW,250,0.0,0.0,86,0.00,,---,0.00,VWS V14.01,2013-06-12 10:47:00,
2013-06-12 06:52:00,67.9,63.6,29.87,WSW,250,0.0,0.0,86,0.00,,---,0.00,VWS V14.01,2013-06-12 10:52:00,
2013-06-12 06:57:00,68.0,63.7,29.87,WSW,250,0.0,0.0,86,0.00,,---,0.00,VWS V14.01,2013-06-12 10:57:00,
2013-06-12 07:03:00,68.2,63.5,29.87,WNW,290,0.0,1.0,85,0.00,,---,0.00,VWS V14.01,2013-06-12 11:03:00,
2013-06-12 07:08:00,68.5,63.8,29.87,WNW,290,0.0,1.0,85,0.00,,---,0.00,VWS V14.01,2013-06-12 11:08:00,
2013-06-12 07:13:00,68.6,63.9,29.88,WNW,290,0.0,1.0,85,0.00,,---,0.00,VWS V14.01,2013-06-12 11:13:00,
2013-06-12 07:18:00,68.9,64.2,29.88,WNW,290,0.0,1.0,85,0.00,,---,0.00,VWS V14.01,2013-06-12 11:18:00,
2013-06-12 07:23:00,69.3,64.3,29.88,WNW,284,0.0,1.0,84,0.00,,---,0.00,VWS V14.01,2013-06-12 11:23:00,
2013-06-12 07:28:00,69.7,64.0,29.88,West,262,0.0,1.0,82,0.00,,---,0.00,VWS V14.01,2013-06-12 11:28:00,
2013-06-12 07:33:00,70.3,64.2,29.88,WSW,239,0.0,1.0,81,0.00,,---,0.00,VWS V14.01,2013-06-12 11:33:00,
2013-06-12 07:38:00,70.8,64.7,29.87,WSW,251,0.0,1.0,81,0.00,,---,0.00,VWS V14.01,2013-06-12 11:38:00,
2013-06-12 07:43:00,71.3,64.5,29.87,WSW,245,0.0,2.0,79,0.00,,---,0.00,VWS V14.01,2013-06-12 11:43:00,
2013-06-12 07:49:00,71.6,64.8,29.88,WSW,250,0.0,2.0,79,0.00,,---,0.00,VWS V14.01,2013-06-12 11:49:00,
2013-06-12 07:54:00,71.7,64.8,29.87,West,270,0.0,2.0,79,0.00,,---,0.00,VWS V14.01,2013-06-12 11:54:00,
2013-06-12 07:59:00,71.9,65.4,29.87,West,271,0.0,2.0,80,0.00,,---,0.00,VWS V14.01,2013-06-12 11:59:00,
2013-06-12 08:04:00,72.3,65.1,29.87,WSW,257,0.0,1.0,78,0.00,,---,0.00,VWS V14.01,2013-06-12 12:04:00,
2013-06-12 08:09:00,72.8,65.2,29.87,WSW,239,0.0,2.0,77,0.00,,---,0.00,VWS V14.01,2013-06-12 12:09:00,
2013-06-12 08:14:00,73.2,65.6,29.87,South,170,0.0,2.0,77,0.00,,---,0.00,VWS V14.01,2013-06-12 12:14:00,
2013-06-12 08:19:00,73.6,65.9,29.87,West,263,0.0,2.0,77,0.00,,---,0.00,VWS V14.01,2013-06-12 12:19:00,
2013-06-12 08:24:00,74.0,66.0,29.87,WNW,285,0.0,2.0,76,0.00,,---,0.00,VWS V14.01,2013-06-12 12:24:00,
2013-06-12 08:29:00,74.3,66.2,29.87,SW,229,0.0,2.0,76,0.00,,---,0.00,VWS V14.01,2013-06-12 12:29:00,
2013-06-12 08:35:00,74.7,66.3,29.88,West,271,0.0,0.0,75,0.00,,---,0.00,VWS V14.01,2013-06-12 12:35:00,
2013-06-12 08:40:00,75.0,66.6,29.87,WSW,255,0.0,1.0,75,0.00,,---,0.00,VWS V14.01,2013-06-12 12:40:00,
2013-06-12 08:45:00,75.3,66.1,29.87,WNW,300,0.0,5.0,73,0.00,,---,0.00,VWS V14.01,2013-06-12 12:45:00,
2013-06-12 08:50:00,75.8,66.9,29.87,WNW,288,1.0,5.0,74,0.00,,---,0.00,VWS V14.01,2013-06-12 12:50:00,
2013-06-12 08:55:00,76.2,67.7,29.87,West,266,0.0,5.0,75,0.00,,---,0.00,VWS V14.01,2013-06-12 12:55:00,
2013-06-12 09:00:00,76.6,67.3,29.87,WSW,256,0.0,5.0,73,0.00,,---,0.00,VWS V14.01,2013-06-12 13:00:00,
2013-06-12 09:05:00,77.1,67.4,29.87,WSW,242,0.0,1.0,72,0.00,,---,0.00,VWS V14.01,2013-06-12 13:05:00,
2013-06-12 09:10:00,77.5,66.9,29.87,West,260,0.0,4.0,70,0.00,,---,0.00,VWS V14.01,2013-06-12 13:10:00,
2013-06-12 09:16:00,77.8,67.7,29.86,WSW,255,0.0,4.0,71,0.00,,---,0.00,VWS V14.01,2013-06-12 13:16:00,
2013-06-12 09:21:00,78.3,68.5,29.86,West,276,0.0,4.0,72,0.00,,---,0.00,VWS V14.01,2013-06-12 13:21:00,
2013-06-12 09:26:00,78.8,67.8,29.86,West,267,0.0,4.0,69,0.00,,---,0.00,VWS V14.01,2013-06-12 13:26:00,
2013-06-12 09:31:00,79.5,68.0,29.86,West,262,0.0,4.0,68,0.00,,---,0.00,VWS V14.01,2013-06-12 13:31:00,
2013-06-12 09:36:00,80.0,68.5,29.86,WNW,300,0.0,3.0,68,0.00,,---,0.00,VWS V14.01,2013-06-12 13:36:00,
2013-06-12 09:41:00,80.7,67.8,29.86,WSW,258,0.0,3.0,65,0.00,,---,0.00,VWS V14.01,2013-06-12 13:41:00,
2013-06-12 09:46:00,81.4,68.5,29.86,West,276,0.0,3.0,65,0.00,,---,0.00,VWS V14.01,2013-06-12 13:46:00,
2013-06-12 09:51:00,82.1,69.6,29.86,SSW,194,0.0,3.0,66,0.00,,---,0.00,VWS V14.01,2013-06-12 13:51:00,
2013-06-12 09:56:00,82.4,68.6,29.86,East,95,1.0,5.0,63,0.00,,---,0.00,VWS V14.01,2013-06-12 13:56:00,
2013-06-12 10:02:00,82.7,68.4,29.86,WNW,288,3.0,3.0,62,0.00,,---,0.00,VWS V14.01,2013-06-12 14:02:00,
2013-06-12 10:07:00,82.9,68.6,29.85,West,264,0.0,3.0,62,0.00,,---,0.00,VWS V14.01,2013-06-12 14:07:00,
2013-06-12 10:12:00,82.8,68.9,29.86,SSW,207,1.0,5.0,63,0.00,,---,0.00,VWS V14.01,2013-06-12 14:12:00,
2013-06-12 10:17:00,82.8,68.0,29.86,West,269,1.0,7.0,61,0.00,,---,0.00,VWS V14.01,2013-06-12 14:17:00,
2013-06-12 10:22:00,83.1,68.7,29.86,SW,233,1.0,7.0,62,0.00,,---,0.00,VWS V14.01,2013-06-12 14:22:00,
2013-06-12 10:27:00,83.4,68.6,29.86,SSW,195,2.0,7.0,61,0.00,,---,0.00,VWS V14.01,2013-06-12 14:27:00,
2013-06-12 10:32:00,83.6,69.7,29.86,WSW,248,1.0,3.0,63,0.00,,---,0.00,VWS V14.01,2013-06-12 14:32:00,
2013-06-12 10:37:00,83.6,68.7,29.86,East,89,1.0,9.0,61,0.00,,---,0.00,VWS V14.01,2013-06-12 14:37:00,
2013-06-12 10:42:00,84.1,70.6,29.86,West,266,0.0,9.0,64,0.00,,---,0.00,VWS V14.01,2013-06-12 14:42:00,
2013-06-12 10:48:00,85.0,70.1,29.86,WSW,248,4.0,9.0,61,0.00,,---,0.00,VWS V14.01,2013-06-12 14:48:00,
2013-06-12 10:53:00,85.0,69.1,29.86,SW,229,0.0,9.0,59,0.00,,---,0.00,VWS V14.01,2013-06-12 14:53:00,
2013-06-12 10:58:00,85.4,69.4,29.86,SW,226,1.0,9.0,59,0.00,,---,0.00,VWS V14.01,2013-06-12 14:58:00,
2013-06-12 11:03:00,85.6,70.1,29.86,North,11,2.0,3.0,60,0.00,,---,0.00,VWS V14.01,2013-06-12 15:03:00,
2013-06-12 11:08:00,85.7,69.2,29.86,SSW,205,1.0,4.0,58,0.00,,---,0.00,VWS V14.01,2013-06-12 15:08:00,
2013-06-12 11:13:00,86.1,70.6,29.86,ESE,107,1.0,4.0,60,0.00,,---,0.00,VWS V14.01,2013-06-12 15:13:00,
2013-06-12 11:18:00,86.2,69.7,29.85,SE,139,0.0,7.0,58,0.00,,---,0.00,VWS V14.01,2013-06-12 15:18:00,
2013-06-12 11:23:00,85.9,69.9,29.86,North,351,1.0,7.0,59,0.00,,---,0.00,VWS V14.01,2013-06-12 15:23:00,
2013-06-12 11:28:00,86.0,70.0,29.86,NE,34,1.0,7.0,59,0.00,,---,0.00,VWS V14.01,2013-06-12 15:28:00,
2013-06-12 11:33:00,86.2,69.7,29.86,North,354,1.0,4.0,58,0.00,,---,0.00,VWS V14.01,2013-06-12 15:33:00,
2013-06-12 11:39:00,86.3,70.3,29.86,SSE,159,1.0,4.0,59,0.00,,---,0.00,VWS V14.01,2013-06-12 15:39:00,
2013-06-12 11:44:00,86.8,70.8,29.86,SW,221,1.0,4.0,59,0.00,,---,0.00,VWS V14.01,2013-06-12 15:44:00,
2013-06-12 11:49:00,86.6,70.6,29.86,East,94,1.0,4.0,59,0.00,,---,0.00,VWS V14.01,2013-06-12 15:49:00,
2013-06-12 11:54:00,86.8,69.8,29.86,SW,235,1.0,4.0,57,0.00,,---,0.00,VWS V14.01,2013-06-12 15:54:00,
2013-06-12 11:59:00,87.1,70.5,29.86,SW,235,2.0,4.0,58,0.00,,---,0.00,VWS V14.01,2013-06-12 15:59:00,
2013-06-12 12:04:00,87.4,70.3,29.86,West,274,3.0,3.0,57,0.00,,---,0.00,VWS V14.01,2013-06-12 16:04:00,
2013-06-12 12:09:00,87.5,68.8,29.86,WSW,246,3.0,5.0,54,0.00,,---,0.00,VWS V14.01,2013-06-12 16:09:00,
2013-06-12 12:14:00,87.4,69.3,29.86,SSW,211,2.0,5.0,55,0.00,,---,0.00,VWS V14.01,2013-06-12 16:14:00,
2013-06-12 12:19:00,87.0,68.9,29.86,SW,233,2.0,6.0,55,0.00,,---,0.00,VWS V14.01,2013-06-12 16:19:00,
2013-06-12 12:24:00,86.4,68.9,29.86,SSW,200,0.0,6.0,56,0.00,,---,0.00,VWS V14.01,2013-06-12 16:24:00,
2013-06-12 12:30:00,86.5,68.4,29.86,SSW,200,0.0,6.0,55,0.00,,---,0.00,VWS V14.01,2013-06-12 16:30:00,
2013-06-12 12:35:00,85.9,69.4,29.86,SW,215,0.0,5.0,58,0.00,,---,0.00,VWS V14.01,2013-06-12 16:35:00,
2013-06-12 12:40:00,85.6,68.1,29.86,WSW,256,0.0,5.0,56,0.00,,---,0.00,VWS V14.01,2013-06-12 16:40:00,
2013-06-12 12:45:00,85.3,68.3,29.86,NNW,327,0.0,5.0,57,0.00,,---,0.00,VWS V14.01,2013-06-12 16:45:00,
2013-06-12 12:50:00,85.7,69.2,29.86,WSW,257,1.0,5.0,58,0.00,,---,0.00,VWS V14.01,2013-06-12 16:50:00,
2013-06-12 12:55:00,86.4,68.9,29.86,East,92,1.0,5.0,56,0.00,,---,0.00,VWS V14.01,2013-06-12 16:55:00,
2013-06-12 13:00:00,86.9,70.4,29.86,SW,236,0.0,5.0,58,0.00,,---,0.00,VWS V14.01,2013-06-12 17:00:00,
2013-06-12 13:05:00,87.6,68.9,29.86,SE,139,3.0,5.0,54,0.00,,---,0.00,VWS V14.01,2013-06-12 17:05:00,
2013-06-12 13:11:00,87.9,70.3,29.86,SSW,197,0.0,5.0,56,0.00,,---,0.00,VWS V14.01,2013-06-12 17:11:00,
2013-06-12 13:16:00,88.0,67.6,29.86,SW,227,2.0,5.0,51,0.00,,---,0.00,VWS V14.01,2013-06-12 17:16:00,
2013-06-12 13:21:00,87.3,68.6,29.86,West,274,0.0,5.0,54,0.00,,---,0.00,VWS V14.01,2013-06-12 17:21:00,
2013-06-12 13:26:00,87.2,69.1,29.86,SW,218,1.0,5.0,55,0.00,,---,0.00,VWS V14.01,2013-06-12 17:26:00,
2013-06-12 13:31:00,87.6,67.8,29.86,SSW,205,2.0,5.0,52,0.00,,---,0.00,VWS V14.01,2013-06-12 17:31:00,
2013-06-12 13:36:00,88.3,68.5,29.85,West,264,1.0,3.0,52,0.00,,---,0.00,VWS V14.01,2013-06-12 17:36:00,
2013-06-12 13:41:00,88.5,66.3,29.86,West,262,4.0,6.0,48,0.00,,---,0.00,VWS V14.01,2013-06-12 17:41:00,
2013-06-12 13:46:00,88.0,67.1,29.86,West,276,2.0,8.0,50,0.00,,---,0.00,VWS V14.01,2013-06-12 17:46:00,
2013-06-12 13:51:00,87.8,68.0,29.86,North,356,2.0,8.0,52,0.00,,---,0.00,VWS V14.01,2013-06-12 17:51:00,
2013-06-12 13:56:00,87.7,69.0,29.86,ENE,60,0.0,8.0,54,0.00,,---,0.00,VWS V14.01,2013-06-12 17:56:00,
2013-06-12 14:01:00,88.1,67.1,29.85,NNW,333,0.0,1.0,50,0.00,,---,0.00,VWS V14.01,2013-06-12 18:01:00,
2013-06-12 14:07:00,88.2,67.8,29.85,NW,325,0.0,4.0,51,0.00,,---,0.00,VWS V14.01,2013-06-12 18:07:00,
2013-06-12 14:12:00,87.8,67.4,29.85,SW,222,0.0,5.0,51,0.00,,---,0.00,VWS V14.01,2013-06-12 18:12:00,
2013-06-12 14:17:00,87.7,66.8,29.85,West,264,1.0,5.0,50,0.00,,---,0.00,VWS V14.01,2013-06-12 18:17:00,
2013-06-12 14:22:00,88.0,67.1,29.85,NE,36,2.0,5.0,50,0.00,,---,0.00,VWS V14.01,2013-06-12 18:22:00,
2013-06-12 14:27:00,88.4,68.0,29.84,SSW,211,4.0,6.0,51,0.00,,---,0.00,VWS V14.01,2013-06-12 18:27:00,
2013-06-12 14:32:00,88.6,67.6,29.84,NNE,30,1.0,1.0,50,0.00,,---,0.00,VWS V14.01,2013-06-12 18:32:00,
2013-06-12 14:37:00,88.9,67.9,29.84,WSW,250,0.0,3.0,50,0.00,,---,0.00,VWS V14.01,2013-06-12 18:37:00,
2013-06-12 14:42:00,89.4,65.9,29.84,WSW,243,1.0,5.0,46,0.00,,---,0.00,VWS V14.01,2013-06-12 18:42:00,
2013-06-12 14:47:00,89.1,66.9,29.84,ESE,122,0.0,5.0,48,0.00,,---,0.00,VWS V14.01,2013-06-12 18:47:00,
2013-06-12 14:52:00,89.3,65.2,29.83,WSW,249,0.0,6.0,45,0.00,,---,0.00,VWS V14.01,2013-06-12 18:52:00,
2013-06-12 14:57:00,88.9,65.5,29.83,NNE,16,4.0,8.0,46,0.00,,---,0.00,VWS V14.01,2013-06-12 18:57:00,
2013-06-12 15:02:00,88.3,66.1,29.83,SW,233,2.0,5.0,48,0.00,,---,0.00,VWS V14.01,2013-06-12 19:02:00,
2013-06-12 15:07:00,88.4,67.4,29.83,East,96,0.0,7.0,50,0.00,,---,0.00,VWS V14.01,2013-06-12 19:07:00,
2013-06-12 15:12:00,88.7,65.3,29.83,WNW,302,0.0,7.0,46,0.00,,---,0.00,VWS V14.01,2013-06-12 19:12:00,
2013-06-12 15:17:00,88.8,66.0,29.83,ESE,108,2.0,7.0,47,0.00,,---,0.00,VWS V14.01,2013-06-12 19:17:00,
2013-06-12 15:23:00,89.2,65.7,29.84,ENE,60,1.0,7.0,46,0.00,,---,0.00,VWS V14.01,2013-06-12 19:23:00,
2013-06-12 15:28:00,89.1,67.5,29.84,WSW,245,1.0,7.0,49,0.00,,---,0.00,VWS V14.01,2013-06-12 19:28:00,
2013-06-12 15:33:00,89.0,67.4,29.83,SSW,210,1.0,3.0,49,0.00,,---,0.00,VWS V14.01,2013-06-12 19:33:00,
2013-06-12 15:38:00,89.0,66.2,29.84,WNW,283,1.0,3.0,47,0.00,,---,0.00,VWS V14.01,2013-06-12 19:38:00,
2013-06-12 15:43:00,89.2,67.6,29.83,SSW,210,0.0,4.0,49,0.00,,---,0.00,VWS V14.01,2013-06-12 19:43:00,
2013-06-12 15:48:00,89.9,69.4,29.83,WSW,240,0.0,4.0,51,0.00,,---,0.00,VWS V14.01,2013-06-12 19:48:00,
2013-06-12 15:53:00,90.1,66.6,29.83,SE,138,1.0,4.0,46,0.00,,---,0.00,VWS V14.01,2013-06-12 19:53:00,
2013-06-12 15:58:00,90.0,68.3,29.83,WSW,248,1.0,4.0,49,0.00,,---,0.00,VWS V14.01,2013-06-12 19:58:00,
2013-06-12 16:03:00,89.9,67.6,29.84,WNW,293,3.0,3.0,48,0.00,,---,0.00,VWS V14.01,2013-06-12 20:03:00,
2013-06-12 16:08:00,90.1,67.2,29.83,WSW,256,2.0,4.0,47,0.00,,---,0.00,VWS V14.01,2013-06-12 20:08:00,
2013-06-12 16:14:00,90.3,68.0,29.83,West,265,0.0,4.0,48,0.00,,---,0.00,VWS V14.01,2013-06-12 20:14:00,
2013-06-12 16:19:00,90.4,66.8,29.83,SW,235,2.0,4.0,46,0.00,,---,0.00,VWS V14.01,2013-06-12 20:19:00,
2013-06-12 16:24:00,90.0,68.3,29.83,NW,319,0.0,4.0,49,0.00,,---,0.00,VWS V14.01,2013-06-12 20:24:00,
2013-06-12 16:29:00,90.5,69.9,29.83,SW,223,1.0,4.0,51,0.00,,---,0.00,VWS V14.01,2013-06-12 20:29:00,
2013-06-12 16:34:00,91.1,68.1,29.83,SW,232,1.0,2.0,47,0.00,,---,0.00,VWS V14.01,2013-06-12 20:34:00,
2013-06-12 16:39:00,90.6,66.4,29.83,West,262,4.0,4.0,45,0.00,,---,0.00,VWS V14.01,2013-06-12 20:39:00,
2013-06-12 16:44:00,90.3,67.3,29.82,NE,39,0.0,8.0,47,0.00,,---,0.00,VWS V14.01,2013-06-12 20:44:00,
2013-06-12 16:49:00,90.8,69.6,29.82,WSW,252,0.0,8.0,50,0.00,,---,0.00,VWS V14.01,2013-06-12 20:49:00,
2013-06-12 16:54:00,91.2,68.8,29.81,WSW,255,2.0,8.0,48,0.00,,---,0.00,VWS V14.01,2013-06-12 20:54:00,
2013-06-12 16:59:00,91.7,68.6,29.81,WNW,283,0.0,8.0,47,0.00,,---,0.00,VWS V14.01,2013-06-12 20:59:00,
2013-06-12 17:04:00,91.9,70.6,29.82,WNW,283,1.0,2.0,50,0.00,,---,0.00,VWS V14.01,2013-06-12 21:04:00,
2013-06-12 17:10:00,91.0,68.0,29.81,SSW,203,0.0,4.0,47,0.00,,---,0.00,VWS V14.01,2013-06-12 21:10:00,
2013-06-12 17:15:00,89.8,68.7,29.81,WSW,238,1.0,4.0,50,0.00,,---,0.00,VWS V14.01,2013-06-12 21:15:00,
2013-06-12 17:20:00,89.0,68.0,29.81,SSE,157,0.0,4.0,50,0.00,,---,0.00,VWS V14.01,2013-06-12 21:20:00,
2013-06-12 17:25:00,88.8,67.8,29.80,WSW,243,0.0,4.0,50,0.00,,---,0.00,VWS V14.01,2013-06-12 21:25:00,
2013-06-12 17:30:00,88.6,68.2,29.80,West,262,0.0,4.0,51,0.00,,---,0.00,VWS V14.01,2013-06-12 21:30:00,
2013-06-12 17:35:00,88.3,68.5,29.80,WSW,253,0.0,1.0,52,0.00,,---,0.00,VWS V14.01,2013-06-12 21:35:00,
2013-06-12 17:40:00,88.5,69.2,29.80,WNW,283,2.0,2.0,53,0.00,,---,0.00,VWS V14.01,2013-06-12 21:40:00,
2013-06-12 17:45:00,88.8,68.9,29.80,SSE,153,1.0,3.0,52,0.00,,---,0.00,VWS V14.01,2013-06-12 21:45:00,
2013-06-12 17:50:00,88.7,68.3,29.80,SSE,154,0.0,3.0,51,0.00,,---,0.00,VWS V14.01,2013-06-12 21:50:00,
2013-06-12 17:55:00,89.2,68.7,29.80,West,270,0.0,3.0,51,0.00,,---,0.00,VWS V14.01,2013-06-12 21:55:00,
2013-06-12 18:00:00,89.8,69.3,29.80,SW,215,1.0,3.0,51,0.00,,---,0.00,VWS V14.01,2013-06-12 22:00:00,
2013-06-12 18:05:00,89.7,69.2,29.80,WNW,283,0.0,2.0,51,0.00,,---,0.00,VWS V14.01,2013-06-12 22:05:00,
2013-06-12 18:11:00,89.2,69.3,29.80,NW,319,0.0,2.0,52,0.00,,---,0.00,VWS V14.01,2013-06-12 22:11:00,
2013-06-12 18:16:00,89.0,69.1,29.80,SW,221,1.0,2.0,52,0.00,,---,0.00,VWS V14.01,2013-06-12 22:16:00,
2013-06-12 18:21:00,88.8,68.9,29.80,WSW,256,0.0,2.0,52,0.00,,---,0.00,VWS V14.01,2013-06-12 22:21:00,
2013-06-12 18:26:00,88.6,69.8,29.79,WSW,255,1.0,2.0,54,0.00,,---,0.00,VWS V14.01,2013-06-12 22:26:00,
2013-06-12 18:31:00,87.9,69.7,29.79,WNW,289,2.0,2.0,55,0.00,,---,0.00,VWS V14.01,2013-06-12 22:31:00,
2013-06-12 18:36:00,87.4,70.8,29.79,West,277,0.0,3.0,58,0.00,,---,0.00,VWS V14.01,2013-06-12 22:36:00,
2013-06-12 18:41:00,87.0,68.9,29.79,WSW,255,0.0,3.0,55,0.00,,---,0.00,VWS V14.01,2013-06-12 22:41:00,
2013-06-12 18:46:00,86.7,69.7,29.80,West,264,0.0,3.0,57,0.00,,---,0.00,VWS V14.01,2013-06-12 22:46:00,
2013-06-12 18:51:00,86.7,69.1,29.80,West,281,0.0,3.0,56,0.00,,---,0.00,VWS V14.01,2013-06-12 22:51:00,
2013-06-12 18:56:00,86.7,69.7,29.80,West,281,0.0,3.0,57,0.00,,---,0.00,VWS V14.01,2013-06-12 22:56:00,
2013-06-12 19:02:00,86.4,68.9,29.81,West,277,0.0,0.0,56,0.00,,---,0.00,VWS V14.01,2013-06-12 23:02:00,
2013-06-12 19:07:00,86.1,69.6,29.81,West,281,0.0,1.0,58,0.00,,---,0.00,VWS V14.01,2013-06-12 23:07:00,
2013-06-12 19:12:00,85.8,69.8,29.81,West,281,0.0,1.0,59,0.00,,---,0.00,VWS V14.01,2013-06-12 23:12:00,
2013-06-12 19:17:00,85.6,69.6,29.81,West,281,0.0,1.0,59,0.00,,---,0.00,VWS V14.01,2013-06-12 23:17:00,
2013-06-12 19:22:00,85.3,69.8,29.82,WNW,290,0.0,1.0,60,0.00,,---,0.00,VWS V14.01,2013-06-12 23:22:00,
2013-06-12 19:27:00,85.1,69.7,29.82,WNW,290,0.0,1.0,60,0.00,,---,0.00,VWS V14.01,2013-06-12 23:27:00,
2013-06-12 19:32:00,85.0,69.6,29.82,WNW,290,0.0,0.0,60,0.00,,---,0.00,VWS V14.01,2013-06-12 23:32:00,
2013-06-12 19:37:00,84.7,70.2,29.82,WNW,290,0.0,0.0,62,0.00,,---,0.00,VWS V14.01,2013-06-12 23:37:00,
2013-06-12 19:42:00,84.4,70.0,29.82,WNW,290,0.0,0.0,62,0.00,,---,0.00,VWS V14.01,2013-06-12 23:42:00,
2013-06-12 19:47:00,84.0,70.1,29.82,WNW,290,0.0,0.0,63,0.00,,---,0.00,VWS V14.01,2013-06-12 23:47:00,
2013-06-12 19:52:00,83.7,70.2,29.82,WNW,290,0.0,0.0,64,0.00,,---,0.00,VWS V14.01,2013-06-12 23:52:00,
2013-06-12 19:58:00,83.3,69.9,29.81,WNW,289,0.0,0.0,64,0.00,,---,0.00,VWS V14.01,2013-06-12 23:58:00,
2013-06-12 20:03:00,83.0,69.6,29.82,WNW,289,0.0,0.0,64,0.00,,---,0.00,VWS V14.01,2013-06-13 00:03:00,
2013-06-12 20:08:00,82.7,69.8,29.83,WNW,290,0.0,0.0,65,0.00,,---,0.00,VWS V14.01,2013-06-13 00:08:00,
2013-06-12 20:13:00,82.5,69.6,29.82,WNW,290,0.0,0.0,65,0.00,,---,0.00,VWS V14.01,2013-06-13 00:13:00,
2013-06-12 20:18:00,82.4,69.5,29.82,WNW,290,0.0,0.0,65,0.00,,---,0.00,VWS V14.01,2013-06-13 00:18:00,
2013-06-12 20:23:00,82.2,70.2,29.82,WNW,290,0.0,0.0,67,0.00,,---,0.00,VWS V14.01,2013-06-13 00:23:00,
2013-06-12 20:28:00,81.9,69.9,29.82,WNW,290,0.0,0.0,67,0.00,,---,0.00,VWS V14.01,2013-06-13 00:28:00,
2013-06-12 20:33:00,81.5,69.1,29.82,WNW,290,0.0,0.0,66,0.00,,---,0.00,VWS V14.01,2013-06-13 00:33:00,
2013-06-12 20:38:00,81.1,69.6,29.82,WNW,290,0.0,0.0,68,0.00,,---,0.00,VWS V14.01,2013-06-13 00:38:00,
2013-06-12 20:43:00,80.8,69.7,29.82,WNW,290,0.0,0.0,69,0.00,,---,0.00,VWS V14.01,2013-06-13 00:43:00,
2013-06-12 20:48:00,80.5,69.8,29.83,WNW,289,0.0,0.0,70,0.00,,---,0.00,VWS V14.01,2013-06-13 00:48:00,
2013-06-12 20:54:00,80.3,69.6,29.82,WNW,290,0.0,0.0,70,0.00,,---,0.00,VWS V14.01,2013-06-13 00:54:00,
2013-06-12 20:59:00,80.0,69.8,29.83,WNW,289,0.0,0.0,71,0.00,,---,0.00,VWS V14.01,2013-06-13 00:59:00,
2013-06-12 21:04:00,79.8,70.0,29.83,WNW,289,0.0,0.0,72,0.00,,---,0.00,VWS V14.01,2013-06-13 01:04:00,
2013-06-12 21:09:00,79.6,70.2,29.83,WNW,290,0.0,0.0,73,0.00,,---,0.00,VWS V14.01,2013-06-13 01:09:00,
2013-06-12 21:14:00,79.3,70.3,29.83,WNW,290,0.0,0.0,74,0.00,,---,0.00,VWS V14.01,2013-06-13 01:14:00,
2013-06-12 21:19:00,79.0,70.4,29.83,WNW,289,0.0,0.0,75,0.00,,---,0.00,VWS V14.01,2013-06-13 01:19:00,
2013-06-12 21:24:00,78.8,70.2,29.83,WNW,290,0.0,0.0,75,0.00,,---,0.00,VWS V14.01,2013-06-13 01:24:00,
2013-06-12 21:29:00,78.5,69.9,29.83,WNW,290,0.0,0.0,75,0.00,,---,0.00,VWS V14.01,2013-06-13 01:29:00,
2013-06-12 21:34:00,78.3,69.7,29.83,WNW,290,0.0,0.0,75,0.00,,---,0.00,VWS V14.01,2013-06-13 01:34:00,
2013-06-12 21:39:00,78.0,69.4,29.82,WNW,290,0.0,0.0,75,0.00,,---,0.00,VWS V14.01,2013-06-13 01:39:00,
2013-06-12 21:44:00,77.7,68.8,29.82,WNW,290,0.0,0.0,74,0.00,,---,0.00,VWS V14.01,2013-06-13 01:44:00,
2013-06-12 21:50:00,77.7,69.5,29.83,WNW,290,0.0,0.0,76,0.00,,---,0.00,VWS V14.01,2013-06-13 01:50:00,
2013-06-12 21:55:00,77.7,69.5,29.83,WNW,290,0.0,0.0,76,0.00,,---,0.00,VWS V14.01,2013-06-13 01:55:00,
2013-06-12 22:00:00,77.5,69.3,29.83,WNW,290,0.0,0.0,76,0.00,,---,0.00,VWS V14.01,2013-06-13 02:00:00,
2013-06-12 22:05:00,77.6,69.8,29.83,SSE,148,0.0,2.0,77,0.00,,---,0.00,VWS V14.01,2013-06-13 02:05:00,
2013-06-12 22:10:00,78.0,69.8,29.83,SSE,148,0.0,2.0,76,0.00,,---,0.00,VWS V14.01,2013-06-13 02:10:00,
2013-06-12 22:15:00,78.3,69.7,29.83,SSE,148,0.0,2.0,75,0.00,,---,0.00,VWS V14.01,2013-06-13 02:15:00,
2013-06-12 22:20:00,78.5,69.9,29.82,SSE,148,0.0,2.0,75,0.00,,---,0.00,VWS V14.01,2013-06-13 02:20:00,
2013-06-12 22:25:00,78.5,69.9,29.83,SSE,148,0.0,2.0,75,0.00,,---,0.00,VWS V14.01,2013-06-13 02:25:00,
2013-06-12 22:30:00,78.4,69.8,29.83,SSE,148,0.0,2.0,75,0.00,,---,0.00,VWS V14.01,2013-06-13 02:30:00,
2013-06-12 22:35:00,78.3,70.1,29.83,SSE,148,0.0,0.0,76,0.00,,---,0.00,VWS V14.01,2013-06-13 02:35:00,
2013-06-12 22:40:00,78.3,70.1,29.83,SSE,148,0.0,0.0,76,0.00,,---,0.00,VWS V14.01,2013-06-13 02:40:00,
2013-06-12 22:45:00,78.2,70.4,29.83,SSE,148,0.0,0.0,77,0.00,,---,0.00,VWS V14.01,2013-06-13 02:45:00,
2013-06-12 22:51:00,78.1,70.3,29.83,SSE,148,0.0,0.0,77,0.00,,---,0.00,VWS V14.01,2013-06-13 02:51:00,
2013-06-12 22:56:00,77.9,70.1,29.83,SSE,148,0.0,0.0,77,0.00,,---,0.00,VWS V14.01,2013-06-13 02:56:00,
2013-06-12 23:01:00,77.7,70.3,29.83,SSE,148,0.0,0.0,78,0.00,,---,0.00,VWS V14.01,2013-06-13 03:01:00,
2013-06-12 23:06:00,77.5,70.1,29.83,SSE,148,0.0,0.0,78,0.00,,---,0.00,VWS V14.01,2013-06-13 03:06:00,
2013-06-12 23:11:00,77.4,70.0,29.83,SSE,148,0.0,0.0,78,0.00,,---,0.00,VWS V14.01,2013-06-13 03:11:00,
2013-06-12 23:16:00,77.2,70.2,29.83,SSE,148,0.0,0.0,79,0.00,,---,0.00,VWS V14.01,2013-06-13 03:16:00,
2013-06-12 23:21:00,77.0,70.0,29.83,SSE,148,0.0,0.0,79,0.00,,---,0.00,VWS V14.01,2013-06-13 03:21:00,
2013-06-12 23:26:00,76.8,70.2,29.83,SSE,148,0.0,0.0,80,0.00,,---,0.00,VWS V14.01,2013-06-13 03:26:00,
2013-06-12 23:31:00,76.8,70.2,29.83,SSE,148,0.0,0.0,80,0.00,,---,0.00,VWS V14.01,2013-06-13 03:31:00,
2013-06-12 23:36:00,76.6,70.0,29.83,SSE,148,0.0,0.0,80,0.00,,---,0.00,VWS V14.01,2013-06-13 03:36:00,
2013-06-12 23:41:00,76.5,70.2,29.83,SSE,148,0.0,0.0,81,0.00,,---,0.00,VWS V14.01,2013-06-13 03:41:00,
2013-06-12 23:46:00,76.4,70.1,29.83,SSE,148,0.0,0.0,81,0.00,,---,0.00,VWS V14.01,2013-06-13 03:46:00,
2013-06-12 23:51:00,76.2,69.9,29.83,SSE,148,0.0,0.0,81,0.00,,---,0.00,VWS V14.01,2013-06-13 03:51:00,
2013-06-12 23:56:00,76.1,69.8,29.82,SSE,148,0.0,0.0,81,0.00,,---,0.00,VWS V14.01,2013-06-13 03:56:00,